Location: Kernascl�den
(48.0062°N, 3.3198°W)
Time: 12:42:14
(UTC+00:00)

Cosmos 2227 Rocket - Pass Details

Date: 21 January 2021
Orbit: 838 x 846 km, 71.0° (Epoch: 06 March)

Event Time Altitude Azimuth Distance (km) Brightness Sun altitude
Rises 17:47:24 0° 260° (W) 3,397 7.4 -8.6°
Reaches altitude 10° 17:50:40 10° 279° (W) 2,467 5.7 -9.1°
Maximum altitude 17:54:27 18° 321° (NW) 1,970 4.4 -9.7°
Drops below altitude 10° 17:58:15 10° 4° (N) 2,478 4.4 -10.3°
Sets 18:01:34 0° 23° (NNE) 3,418 5.0 -10.8°
Enters shadow 18:01:35 - 23° (NNE) 3,426 5.0 -10.8°
